Home > Weather > Cuiabá > Past weeks

Flag for Brazil Past Weather in Cuiabá, Mato Grosso, Brazil — Yesterday and Last 2 Weeks

Now
79 °F

Scattered clouds.


Feels Like: 81 °F
Forecast: 76 / 99 °F
Wind: No wind

Location: Cuiaba Aeroporto

Current Time: Aug 26, 2016 at 8:09:30 AM

Latest Report: Aug 26, 2016 at 7:00 AM


Visibility: N/A

Pressure: 29.92 "Hg

Humidity: 65%

Dew Point: 66 °F

Location of CuiabáLocation

Weather Data Notice: We have recorded very few readings for this month, some days may be missing.

Past Weather in Cuiabá — Graph

°F

Cuiabá Temperature Yesterday

Maximum temperature yesterday: 100 °F (at 1:00 PM)
Minimum temperature yesterday: 70 °F (at 6:00 AM)
Average temperature yesterday: 84 °F

High & Low Weather Summary for the Past Weeks

 TemperatureHumidityPressure
High100 °F (Aug 25, 1:00 PM)78% (Aug 26, 2:00 AM)30.12 "Hg (Aug 26, 2:00 AM)
Low55 °F (Aug 23, 5:00 AM)18% (Aug 24, 2:00 PM)29.86 "Hg (Aug 24, 3:00 PM)
Average77 °F45%29.98 "Hg
* Reported Aug 22 2:00 PM — Aug 26 7:00 AM, Cuiabá, Weather by CustomWeather, © 2016

Note: Actual official high and low records may vary slightly from our data, if they occured in-between our weather recording intervals... More about our weather records

Advertising

Cuiabá Weather History for the Previous 24 Hours

Scroll right to see more
 ConditionsComfort  
Time TempWeatherWind HumidityBarometerVisibility
7:00 AM
Fri, Aug 26
79 °FScattered clouds.No wind65%29.92 "HgN/A
6:00 AM77 °FPartly sunny.6 mph65%29.92 "HgN/A
5:00 AM73 °FPassing clouds.No wind78%29.89 "HgN/A
4:00 AM73 °FPassing clouds.5 mph78%29.89 "HgN/A
3:00 AM75 °FPassing clouds.2 mph74%29.89 "HgN/A
2:00 AM73 °FPassing clouds.3 mph78%29.89 "HgN/A
1:00 AM77 °FPassing clouds.5 mph65%29.89 "HgN/A
12:00 AM77 °FPassing clouds.5 mph65%29.92 "HgN/A
11:00 PM
Thu, Aug 25
81 °FPassing clouds.3 mph58%29.92 "HgN/A
10:00 PM79 °FPassing clouds.6 mph61%29.92 "HgN/A
9:00 PM79 °FPassing clouds.2 mph61%29.92 "HgN/A
8:00 PM82 °FPassing clouds.2 mph55%29.92 "HgN/A
7:00 PM86 °FPassing clouds.3 mph46%29.89 "HgN/A
6:00 PM86 °FPassing clouds.3 mph46%29.89 "HgN/A
5:00 PM90 °FPassing clouds.3 mph36%29.89 "HgN/A
4:00 PM91 °FPassing clouds.6 mph28%29.86 "HgN/A
3:00 PM90 °FScattered clouds.16 mph31%29.89 "HgN/A
2:00 PM95 °FScattered clouds.12 mph30%29.86 "Hg4 mi
1:00 PM100 °FPassing clouds.10 mph25%29.89 "HgN/A
12:00 PM99 °FSunny.12 mph25%29.92 "Hg10 mi
11:00 AM95 °FSunny.5 mph30%29.95 "Hg10 mi
10:00 AM91 °FSunny.5 mph32%29.98 "Hg10 mi
9:00 AM86 °FSunny.2 mph40%30.01 "Hg10 mi
8:00 AM77 °FSunny.7 mph57%29.98 "Hg10 mi
Weather by CustomWeather, © 2016

See weather overviewHow to use our weather pages